Location: Palomar Mountain Lodge
(33.3110°N, 116.8495°W)
Time: 06:54:06
(UTC-07:00)

Cosmos 1400 Rocket - Pass Details

Date: 14 June 2018
Orbit: 522 x 570 km, 81.2° (Epoch: 24 June)

Event Time Altitude Azimuth Distance (km) Brightness Sun altitude
Exits shadow 21:31:21 32° 152° (SSE) 979 3.5 -16.6°
Maximum altitude 21:32:54 51° 95° (E) 710 3.0 -16.8°
Drops below altitude 10° 21:36:50 10° 19° (NNE) 1,835 5.8 -17.4°
Sets 21:39:02 0° 15° (NNE) 2,725 6.8 -17.7°
